Theta_e
309 309 308 307 307 307 307 306 304 304 303 304 304 304 301 300 297 295 295 297 294 291 293 291 290 290 291 291 291 290 289 289 290 290 290 288 288 293 297 300 301 299 297 296 296 296 295 294 293 293 293 293 293 293 294 296 296 296 296 296 296 296 296 297 296 295 295 295 295 295 295 295 296 296
308 308 307 307 306 306 306 306 305 305 305 304 303 302 302 301 299 297 295 296 297 294 289 292 291 288 289 290 289 290 289 289 289 289 289 288 287 293 295 297 298 296 296 296 295 295 294 294 294 293 292 292 293 294 295 295 295 295 295 295 295 295 295 295 294 293 293 294 294 294 295 295 295 295
308 307 307 307 307 307 307 307 307 305 304 303 301 301 300 299 299 299 297 294 294 296 293 289 290 287 288 289 288 287 287 288 289 289 288 287 288 291 293 294 295 295 296 295 294 294 295 294 293 292 292 293 293 294 294 293 293 293 293 293 293 293 292 292 291 292 292 293 293 294 294 294 295 295
307 306 305 305 304 305 303 302 301 301 300 300 300 298 299 299 298 299 297 295 296 290 290 289 288 287 286 288 286 285 286 287 288 288 288 287 288 290 291 293 294 295 295 294 294 294 294 293 293 293 292 292 292 292 292 292 292 291 291 291 291 290 290 290 291 291 291 291 292 292 293 293 293 294
305 304 304 304 304 303 301 301 299 299 299 297 297 297 297 296 296 295 295 294 295 292 284 287 286 287 287 286 286 285 284 286 287 286 286 287 288 288 289 290 292 293 294 293 293 293 293 293 292 292 292 291 291 290 290 290 289 289 289 288 288 289 289 290 290 290 290 291 291 291 291 291 292 292
300 299 298 299 299 299 299 299 298 298 297 296 296 295 295 295 295 295 295 294 294 294 285 285 285 286 287 284 286 284 284 285 285 285 285 286 286 286 287 288 290 292 292 292 292 292 292 292 292 291 290 290 289 289 290 289 288 288 287 287 287 288 288 289 289 289 289 290 290 290 290 290 290 290
298 297 297 298 298 299 297 296 297 296 296 296 295 295 295 295 295 295 295 295 293 293 291 285 284 284 284 285 284 285 285 285 284 283 283 283 284 285 285 286 288 291 291 292 292 292 291 291 290 290 289 289 289 288 288 288 287 286 286 286 286 287 287 287 288 288 288 288 289 288 288 288 289 289
297 296 296 296 296 295 295 295 295 295 295 295 295 295 295 294 295 295 294 294 294 294 292 284 284 284 283 284 284 285 284 283 283 283 283 283 283 284 284 286 286 289 291 291 291 291 290 290 289 289 288 288 288 288 287 287 286 285 284 285 285 286 286 286 286 286 286 286 287 287 287 287 287 288
296 296 296 296 296 295 294 294 294 294 293 294 293 293 294 293 293 293 293 292 292 292 291 285 284 285 284 284 284 284 282 282 282 282 282 282 282 282 283 284 286 289 290 289 289 289 289 288 288 288 287 287 287 287 286 286 284 283 283 284 284 285 285 285 285 285 285 285 284 285 286 286 286 286
296 296 296 296 295 295 294 294 294 293 293 293 292 292 292 293 292 292 291 291 291 291 290 286 283 283 283 282 282 283 282 281 280 280 281 281 282 281 281 282 284 285 285 285 286 287 287 287 287 287 287 286 286 286 285 284 283 282 282 283 283 284 284 284 284 284 283 283 283 284 284 285 285 285
295 295 295 295 295 295 295 294 294 293 293 292 292 292 292 292 292 290 290 289 289 289 288 285 284 282 283 282 280 282 283 282 281 279 279 279 281 282 281 280 281 282 283 285 286 285 284 284 284 285 285 285 285 285 284 283 282 281 282 283 283 283 283 283 283 282 282 282 282 282 282 282 283 284
294 294 295 295 295 295 295 294 294 294 294 293 292 292 291 291 290 290 289 288 288 288 287 286 283 282 281 281 282 282 282 281 281 281 281 279 279 280 282 281 280 281 281 281 282 284 284 283 284 284 284 284 284 283 282 281 280 280 282 282 283 282 282 282 282 282 281 282 281 281 281 281 282 283
293 293 294 294 294 292 290 291 292 292 292 293 291 291 290 289 289 289 288 288 287 287 286 285 283 281 280 280 280 280 280 280 279 282 282 281 280 280 280 280 282 281 280 281 281 281 281 280 280 280 280 280 280 280 280 279 279 280 282 282 281 281 281 280 281 281 281 281 280 280 281 281 281 281
292 292 293 293 289 289 289 289 290 291 291 291 292 292 290 289 288 288 288 287 287 287 286 285 282 281 280 280 280 280 281 282 283 282 282 279 280 280 279 279 280 281 280 279 279 279 280 280 279 279 278 278 278 278 279 279 279 280 281 280 280 280 279 280 280 280 280 280 280 280 280 280 280 280
292 292 292 292 290 289 288 289 289 290 291 291 291 291 291 290 289 288 287 287 287 287 287 286 283 282 280 280 281 281 282 282 282 282 282 280 279 278 277 275 278 280 279 278 278 278 279 280 278 277 277 276 276 277 277 279 280 279 279 279 279 279 279 279 279 279 279 279 279 279 279 280 279 280
291 291 292 291 291 290 290 289 289 289 289 290 290 291 291 290 290 291 289 288 287 287 286 285 283 282 281 280 281 281 282 282 282 283 282 280 279 279 279 278 276 279 280 279 278 277 278 279 278 276 275 275 275 275 277 279 279 279 279 278 278 278 278 278 278 278 278 278 278 278 279 279 279 279
291 291 290 290 290 290 287 287 288 288 288 288 289 289 289 289 290 291 292 291 289 288 287 285 283 283 282 280 281 283 283 284 282 282 281 280 280 281 280 279 277 278 280 279 277 276 277 278 277 275 274 274 273 273 277 279 278 278 277 277 277 277 277 278 278 277 277 278 278 278 278 278 278 278
291 291 290 290 290 289 288 288 287 287 287 287 287 287 287 287 287 288 290 290 289 288 287 286 283 284 284 282 283 284 285 283 282 282 280 281 281 281 279 278 277 278 280 278 277 274 275 276 276 275 273 273 272 273 276 277 277 277 277 276 277 277 277 277 277 277 277 277 277 277 278 277 277 278
291 291 291 290 290 290 288 288 287 287 286 286 286 286 286 286 286 286 287 288 288 287 286 286 286 285 285 285 285 285 285 284 284 283 282 282 281 278 277 276 277 276 278 279 277 272 274 274 275 274 272 272 271 272 275 276 276 276 275 275 276 275 276 276 276 276 276 276 277 277 277 277 277 277
291 291 290 290 289 289 288 287 288 288 287 286 285 285 285 285 285 285 286 288 288 286 286 286 286 286 286 286 285 285 285 284 283 282 281 280 278 277 275 273 275 273 275 276 276 272 272 272 273 271 271 271 270 271 272 275 275 275 274 274 274 275 275 275 275 275 275 275 276 276 276 276 276 276
290 290 289 289 289 288 288 288 290 290 288 285 285 284 284 284 284 285 286 288 289 289 288 288 288 288 288 288 288 287 287 284 283 281 279 277 278 276 273 273 272 272 273 275 276 273 270 270 270 270 269 268 269 270 270 270 273 273 273 273 273 273 274 274 273 274 274 275 275 275 275 275 275 274
289 289 286 287 288 287 287 288 289 289 288 285 285 284 284 283 283 283 285 286 287 289 288 288 288 288 288 288 288 287 287 286 284 281 278 278 278 276 275 273 272 271 272 273 275 272 269 268 269 268 267 266 268 269 269 269 269 270 270 271 271 271 272 272 272 272 273 274 274 274 274 274 274 272
287 288 286 286 286 287 287 289 289 289 288 285 285 284 283 283 282 283 285 285 284 285 284 285 285 285 286 286 285 285 286 285 284 283 281 279 278 276 275 273 271 270 271 272 274 270 268 268 268 267 267 266 266 267 268 269 269 269 268 268 267 269 270 270 270 271 271 272 273 272 273 273 273 270
287 286 286 286 287 288 289 289 289 289 289 285 285 285 284 283 282 284 285 285 285 284 284 284 284 283 283 284 284 283 282 280 280 280 280 280 279 277 275 273 273 271 271 272 274 268 265 266 265 265 266 267 266 266 266 267 268 268 268 267 267 267 267 267 267 268 269 270 271 271 272 272 272 269
287 287 286 285 286 287 288 288 288 289 289 288 285 285 284 285 285 285 284 284 284 283 281 280 279 279 279 279 279 278 278 277 276 277 277 276 277 276 274 272 269 267 268 272 274 269 264 264 264 264 264 264 264 264 266 266 267 267 267 266 266 266 266 266 266 266 267 268 268 269 270 271 271 270
286 286 286 285 285 286 287 287 288 288 289 289 286 286 287 287 287 284 284 283 281 280 279 278 277 276 276 275 275 274 273 273 273 271 270 271 270 272 274 273 270 267 267 272 274 265 263 263 264 263 262 264 263 264 263 264 265 265 266 266 266 265 266 265 265 265 265 265 265 266 268 270 270 270
286 287 285 285 284 285 286 287 288 288 289 288 286 287 288 287 286 284 282 280 279 278 277 277 276 275 275 274 272 272 270 269 269 268 268 267 267 267 266 267 269 269 269 267 268 266 264 262 262 264 262 262 263 261 262 262 263 265 264 265 265 265 265 265 264 264 264 264 264 266 266 267 267 268
287 286 285 284 285 285 286 286 287 288 288 287 288 288 288 287 285 282 280 279 278 277 276 276 275 274 274 273 271 269 267 265 265 265 265 264 265 264 264 264 264 265 264 264 264 265 265 262 261 262 263 263 262 262 263 264 263 263 262 264 264 263 264 264 264 263 263 264 264 264 264 264 264 264
286 286 286 285 285 285 286 286 287 287 287 288 287 287 287 285 283 280 279 278 277 277 277 276 274 273 273 272 269 266 264 264 263 262 262 261 261 261 261 260 260 261 262 262 262 263 263 264 262 261 261 261 262 261 262 262 262 262 262 260 261 263 263 264 263 263 262 263 263 263 263 263 263 264
286 286 286 286 285 285 285 285 285 285 286 287 287 287 286 283 282 280 279 278 278 277 276 275 273 271 269 268 266 265 266 265 263 263 262 262 262 263 263 261 260 259 259 260 262 263 263 262 262 261 260 260 261 260 261 260 260 261 261 260 261 262 262 261 262 262 262 261 262 262 263 263 263 263
286 285 284 284 285 284 285 285 285 285 285 285 285 285 284 282 281 281 280 279 278 277 276 273 270 268 267 266 266 266 265 264 264 264 263 262 262 262 262 261 259 259 258 258 260 261 262 261 261 261 259 258 258 259 259 260 259 259 260 260 260 259 261 262 262 261 261 261 261 262 262 263 263 264
284 283 284 284 284 284 284 284 284 284 285 285 285 284 282 281 281 280 281 280 279 277 275 271 268 266 266 267 267 265 264 263 263 263 263 261 260 261 261 260 258 258 258 258 257 257 258 259 260 261 261 260 259 258 258 258 259 259 259 259 259 260 260 259 260 261 261 260 260 260 261 262 262 263
283 283 282 282 282 282 282 282 282 283 284 284 283 282 281 280 280 279 278 277 275 273 270 267 267 267 267 266 266 263 262 261 261 262 262 262 261 260 262 261 259 258 258 258 258 258 257 256 256 258 260 260 261 259 258 258 258 258 258 258 258 258 260 260 260 260 260 260 259 259 259 261 262 263
282 281 281 281 281 281 281 281 281 282 282 281 279 280 280 279 278 278 277 276 273 272 270 268 268 268 267 265 265 263 261 260 260 262 263 260 261 261 261 259 259 259 259 258 258 257 256 256 256 256 255 255 256 258 259 260 260 258 257 257 257 257 260 259 260 260 259 259 258 257 258 260 262 263
281 280 280 280 281 281 281 281 281 282 280 279 278 278 278 278 277 277 275 273 271 270 269 269 269 268 267 266 265 261 261 260 260 259 260 260 261 261 261 259 257 257 258 257 257 255 256 257 258 259 259 259 260 258 259 259 258 259 257 258 257 258 258 259 258 258 259 258 259 257 258 259 260 262
281 281 281 280 281 281 281 281 281 280 279 278 277 276 275 275 275 274 272 272 271 270 269 269 268 267 267 266 264 262 261 260 260 260 259 259 259 258 259 259 258 257 257 258 256 254 255 256 258 259 259 258 259 260 260 263 262 259 259 259 259 257 257 257 257 257 258 258 259 258 257 257 258 261
280 281 281 281 281 281 281 281 280 279 278 277 276 275 275 273 273 273 272 272 271 270 269 268 267 267 266 264 262 260 260 260 260 260 259 258 258 259 258 256 256 256 256 255 254 254 254 255 255 257 258 258 258 257 260 258 260 264 260 258 257 258 257 257 257 257 258 259 258 259 258 258 258 260
280 280 280 280 281 281 281 280 278 277 277 276 275 275 275 273 271 270 271 271 270 269 269 268 266 265 265 263 261 260 260 260 260 259 258 258 258 258 258 257 255 256 255 253 253 253 254 255 256 256 258 258 257 257 256 258 257 260 262 259 257 257 258 257 256 257 257 259 259 259 260 258 259 260
281 280 280 280 280 280 279 278 277 276 276 275 275 274 272 270 269 269 270 269 268 268 267 266 265 264 264 263 261 260 259 259 259 258 257 258 259 258 256 256 254 253 253 252 252 252 253 255 255 255 257 257 258 257 257 255 256 258 260 262 260 258 258 258 257 258 258 258 259 260 260 261 262 265
281 281 280 280 280 279 278 277 277 276 275 275 275 273 270 269 268 269 268 267 267 266 266 264 264 264 263 262 261 261 260 259 259 258 257 257 257 257 256 256 255 254 254 254 253 253 253 253 254 255 255 257 256 255 254 255 255 255 255 258 262 261 259 260 258 258 257 259 259 258 258 259 258 261
280 280 279 279 278 278 277 277 277 276 275 275 273 271 270 269 269 269 268 267 266 265 264 264 264 263 262 261 261 260 260 259 258 258 257 256 256 255 255 255 253 254 255 254 254 253 253 255 254 257 253 252 251 252 254 254 256 257 257 258 260 260 262 262 260 259 258 259 258 257 257 257 258 259
280 279 278 278 277 277 277 276 276 275 274 273 272 270 269 268 267 267 267 266 266 264 264 263 263 262 261 260 260 260 259 258 257 256 256 256 256 256 256 256 255 253 255 256 254 255 254 252 253 254 252 253 254 253 253 254 254 256 256 256 256 258 259 260 262 263 261 260 259 257 258 259 260 258
278 278 277 276 276 276 276 275 274 274 272 271 269 269 267 267 267 266 265 264 264 264 263 262 262 261 260 260 260 260 259 258 256 256 256 256 256 256 255 256 255 254 256 255 254 253 252 252 252 253 253 253 252 253 254 254 253 253 253 254 255 255 255 258 259 261 263 264 264 263 261 260 258 257
277 276 276 275 275 275 274 274 273 272 271 270 269 269 268 267 266 265 265 264 264 262 262 261 261 260 259 259 259 259 259 258 257 256 255 256 256 256 256 255 254 253 254 253 253 252 252 252 251 252 253 252 251 251 253 251 253 253 253 253 253 253 253 254 254 258 259 260 262 263 265 266 266 266
276 275 275 274 274 273 273 272 271 270 270 269 268 268 267 267 265 265 264 264 264 263 262 260 260 259 259 258 259 258 257 258 257 256 256 256 256 256 255 255 254 253 253 253 252 252 251 250 250 250 251 250 249 251 252 252 252 252 252 251 251 252 252 252 252 253 254 255 260 263 264 265 265 266
Wind_Speed
10 10 12 11 11 11 10 9 9 9 9 11 11 10 13 13 13 13 10 11 8 5 11 7 7 10 7 8 8 9 9 10 12 11 12 11 10 15 19 20 19 19 19 17 17 16 14 12 10 8 7 5 3 2 5 9 10 10 10 10 11 11 11 12 13 13 14 15 16 16 18 19 20 21
7 8 8 8 9 9 9 10 10 10 11 11 12 11 11 11 13 13 13 15 7 4 5 7 5 6 10 9 8 8 6 9 12 9 10 9 9 15 18 19 19 18 19 18 17 15 13 12 11 9 6 3 1 3 6 8 8 9 9 9 10 9 10 11 12 13 13 14 15 17 18 19 20 21
7 8 9 8 9 8 10 10 11 11 11 12 10 11 9 10 12 13 12 15 3 4 7 7 4 5 5 5 5 6 6 8 11 9 9 9 10 15 13 16 16 18 20 18 16 14 13 11 9 7 4 2 1 4 5 5 6 6 6 7 7 9 10 11 11 12 12 14 15 17 18 19 20 21
9 10 11 10 9 7 7 9 8 9 9 10 10 9 10 11 11 11 12 14 17 2 2 3 4 5 6 7 8 7 5 7 14 7 6 7 12 10 8 13 17 18 18 18 16 15 13 10 8 6 4 2 2 2 3 4 3 3 4 5 7 9 10 10 11 11 13 14 15 17 18 19 20 21
10 10 11 12 12 9 10 9 9 9 10 9 9 8 9 10 9 10 11 14 16 5 1 1 3 3 6 6 7 7 6 6 7 6 6 7 8 7 7 9 15 17 18 18 16 15 12 10 9 7 5 4 4 3 3 1 1 2 4 6 8 9 9 10 11 12 13 14 16 17 18 19 20 21
8 7 9 10 9 7 9 9 10 9 9 9 9 9 10 10 10 10 11 13 12 15 3 2 2 3 5 5 6 9 9 7 7 7 7 6 8 7 6 8 8 18 17 17 16 14 12 11 9 8 8 6 4 3 2 2 2 3 5 7 8 8 9 10 11 12 13 15 16 17 18 19 20 21
8 9 10 11 10 7 9 9 10 8 9 8 10 11 9 11 11 11 13 12 13 14 8 6 4 5 6 6 7 8 7 7 8 8 7 6 5 3 4 6 7 15 16 17 15 13 12 11 12 11 9 6 5 4 4 3 4 6 7 8 7 8 9 10 11 12 14 15 16 17 18 19 19 21
8 10 9 10 8 7 9 9 9 8 8 9 10 11 11 11 12 12 11 13 12 10 9 5 7 6 8 4 6 6 7 9 8 6 7 6 6 5 4 7 6 11 16 15 14 14 15 14 13 11 9 7 6 5 5 5 5 7 7 7 7 9 10 10 12 12 13 15 16 17 17 18 19 20
9 9 10 9 8 8 10 9 9 8 10 9 9 9 9 9 10 9 9 11 11 10 10 4 3 5 4 2 7 9 10 7 7 6 7 6 6 6 4 5 6 13 17 17 16 15 15 14 13 11 10 8 7 6 6 6 7 8 7 7 8 9 9 10 12 13 13 15 15 16 17 18 19 20
9 10 10 10 8 9 10 10 9 9 11 9 10 10 9 9 8 9 9 8 9 10 9 7 5 6 6 5 5 8 9 11 9 8 6 5 6 9 8 6 5 5 6 7 9 12 12 13 12 10 9 9 8 7 7 7 8 7 7 7 7 8 10 11 12 13 13 14 15 15 16 17 19 19
9 10 10 9 9 10 10 11 10 10 10 10 11 11 11 10 9 9 9 8 10 10 8 5 6 7 5 6 8 7 7 6 9 12 9 7 5 5 8 7 5 6 7 7 11 9 8 10 7 9 10 8 8 8 9 8 7 7 7 7 8 9 10 11 11 12 12 13 14 15 16 17 17 19
9 10 10 10 10 10 11 11 11 10 11 9 10 9 9 8 9 9 8 8 8 8 8 9 9 5 6 5 3 7 9 8 6 8 11 11 8 6 6 6 9 6 7 9 8 10 10 9 10 11 9 10 11 9 8 8 7 7 6 7 9 9 10 10 10 11 12 12 14 15 16 16 17 18
9 10 10 10 9 10 13 15 14 13 11 9 9 9 8 9 9 8 7 8 8 7 8 6 5 6 7 7 10 11 11 12 12 9 7 8 5 6 6 4 3 6 9 7 7 5 5 6 5 5 5 6 9 8 7 5 6 5 7 8 9 9 9 9 9 10 11 13 14 15 15 16 16 18
9 10 10 10 13 14 15 15 16 16 16 16 13 10 8 9 8 9 8 8 9 9 10 11 11 11 9 9 10 10 8 7 8 10 9 9 8 7 6 4 3 4 6 7 7 5 4 5 5 5 6 5 5 4 3 3 4 5 8 9 8 7 8 8 9 10 12 13 14 14 14 15 16 17
9 9 10 9 10 11 12 13 15 16 17 17 18 18 14 12 11 9 10 10 10 10 11 8 10 10 11 9 9 11 11 9 11 11 10 10 9 9 11 6 3 4 7 7 7 5 4 4 6 5 5 4 4 3 3 4 6 7 7 6 6 7 7 8 9 11 13 13 13 14 15 16 16 17
9 9 9 9 7 8 10 9 10 13 16 17 17 17 17 16 17 16 12 10 9 10 9 9 11 10 10 10 12 10 10 11 10 10 9 10 12 10 10 8 8 7 9 7 7 6 3 3 6 5 4 4 4 4 4 6 7 7 5 5 6 7 7 9 11 12 12 13 13 14 15 16 16 17
10 9 8 8 7 7 11 11 9 9 9 13 16 16 16 16 17 17 18 15 12 10 10 9 10 10 10 12 11 11 13 13 11 11 11 11 11 9 10 7 6 8 9 7 6 6 4 5 5 6 4 3 3 3 5 7 7 5 6 7 7 6 8 10 11 12 12 13 14 15 15 16 16 17
10 10 9 9 8 8 9 8 9 8 9 8 8 8 9 9 11 15 17 16 14 10 10 10 11 9 12 14 14 13 13 15 15 13 11 10 10 9 7 5 7 7 6 5 6 4 3 3 5 5 4 3 3 3 4 6 6 6 7 7 7 7 9 10 11 12 13 14 14 15 15 16 16 17
10 10 9 9 9 8 8 8 10 9 9 8 8 8 8 8 7 8 9 10 9 8 8 10 12 11 11 12 14 14 11 13 10 11 12 11 10 10 10 8 7 6 2 4 5 3 6 2 4 4 3 3 3 3 4 6 6 7 7 7 8 9 9 10 11 12 13 14 15 15 15 16 16 17
9 9 9 9 9 9 9 9 14 13 8 7 8 9 8 7 7 8 8 10 8 8 8 9 9 9 11 12 12 12 11 9 8 10 10 10 12 13 9 7 4 3 2 2 3 3 4 1 3 3 3 2 3 3 3 6 7 8 8 9 10 9 9 10 11 12 13 14 15 15 16 16 17 18
9 8 9 9 9 9 9 11 16 15 11 7 9 9 8 7 7 5 4 12 15 14 14 14 15 15 16 17 19 20 19 14 13 12 11 11 11 12 9 5 5 3 2 1 1 3 4 2 2 2 2 2 2 4 4 2 6 8 8 10 11 9 8 9 11 12 13 15 15 15 16 16 17 18
9 9 11 10 9 9 10 12 15 15 12 9 9 9 9 9 8 6 5 6 9 14 14 15 17 18 18 20 22 22 21 22 16 14 14 12 11 8 8 8 5 4 2 2 2 3 3 3 1 2 2 2 2 2 3 3 2 6 6 10 10 8 8 9 11 12 14 15 15 15 16 16 17 11
7 7 7 12 12 11 10 15 14 16 13 9 9 9 9 8 10 9 9 9 11 10 11 10 11 13 16 15 12 14 24 21 10 5 11 11 10 8 8 9 7 4 4 5 4 4 3 4 1 2 1 1 1 1 1 1 1 1 2 3 4 7 7 8 10 12 14 15 15 15 16 16 15 9
6 6 6 8 12 17 18 16 15 16 18 11 9 8 9 9 10 8 9 9 10 10 10 9 10 10 9 9 10 10 10 8 6 6 7 8 8 10 10 9 8 5 4 6 5 4 2 1 3 2 0 1 2 1 1 2 1 0 1 2 2 4 5 6 6 10 13 15 15 14 15 15 15 9
8 7 7 6 9 14 16 15 16 16 19 17 10 10 10 10 9 10 7 10 11 10 10 10 10 10 9 9 8 9 9 8 7 8 7 6 5 7 9 7 4 5 3 5 9 4 3 2 3 2 1 1 1 1 1 1 2 1 1 2 2 4 3 3 3 5 8 13 12 12 13 15 15 11
8 8 7 6 8 13 15 16 17 18 18 21 10 11 14 9 15 11 7 8 7 8 10 10 9 9 9 8 8 8 8 8 8 7 6 7 7 4 2 5 9 6 4 5 9 7 7 2 4 4 1 1 0 1 1 1 1 1 1 0 2 3 2 2 3 4 6 7 6 7 11 15 13 14
8 7 6 7 9 12 15 16 18 18 19 17 10 14 15 14 19 11 7 8 9 9 10 10 10 9 9 9 5 7 7 7 9 8 7 7 6 6 6 7 5 7 7 4 6 8 5 3 2 5 3 2 2 1 1 1 0 2 2 2 2 3 2 2 3 4 6 6 7 10 9 9 10 13
8 8 7 7 10 14 15 16 18 18 17 11 16 16 16 20 16 9 8 8 8 9 8 9 8 6 7 8 7 8 6 6 8 8 7 6 6 7 8 9 11 10 7 5 4 4 6 6 3 1 5 4 2 2 1 1 2 3 2 3 3 2 2 2 3 5 5 5 6 6 5 6 6 7
8 10 13 12 13 14 15 16 17 15 16 18 18 18 19 18 10 8 9 8 8 11 12 11 9 8 7 7 9 8 9 9 9 9 7 7 8 9 10 11 9 8 6 5 5 4 5 5 4 4 3 1 2 1 1 1 1 1 1 2 3 1 2 2 3 4 5 5 6 7 6 6 6 6
13 15 13 13 12 12 11 9 8 7 8 13 16 16 18 11 11 10 11 10 11 10 11 10 10 7 8 9 9 9 7 7 7 8 7 7 6 6 8 9 8 7 6 5 5 5 4 4 5 5 4 1 1 1 2 1 2 1 2 2 3 5 3 2 3 4 4 5 6 7 6 5 6 6
10 10 9 7 8 7 11 12 9 9 8 8 10 9 11 10 10 10 11 12 11 9 10 9 8 7 9 10 11 7 7 7 5 6 7 8 6 6 5 8 6 5 5 5 5 5 4 4 4 4 4 2 1 2 2 1 2 2 1 2 2 2 1 3 3 4 4 5 6 7 7 6 5 6
7 6 6 8 6 6 6 7 7 6 6 7 8 8 9 9 9 9 9 7 8 8 9 10 10 9 11 11 11 8 6 6 6 5 5 7 7 6 6 5 3 4 4 4 4 5 5 3 3 2 2 4 2 2 2 2 3 2 2 1 3 3 3 3 3 4 4 5 5 5 6 6 6 5
4 5 5 6 7 8 8 8 9 8 7 7 8 10 9 7 9 9 8 8 9 10 11 10 11 11 10 9 9 7 6 6 6 4 6 5 8 4 1 5 7 6 5 4 3 2 3 3 2 1 1 3 3 6 4 1 2 2 2 2 1 3 2 2 3 5 6 5 4 4 5 6 5 5
7 7 7 8 9 9 9 9 9 9 8 7 8 9 9 9 8 9 8 8 9 9 11 11 11 10 10 9 11 7 7 5 5 5 7 6 5 6 5 6 4 3 3 4 4 2 2 2 1 1 1 1 3 4 4 3 2 1 2 1 2 1 2 1 3 5 5 4 6 7 5 6 5 4
9 8 9 8 8 9 8 9 9 8 8 8 9 8 9 8 9 8 7 8 8 9 11 10 10 10 11 10 11 8 7 8 6 4 3 5 4 4 6 6 5 4 5 5 3 1 2 1 0 1 0 1 0 1 6 4 0 1 1 2 1 1 2 2 4 4 5 5 4 6 7 6 5 5
10 8 8 8 9 9 9 9 8 8 8 8 9 9 9 8 7 9 9 9 10 10 10 11 10 11 10 11 11 7 7 7 6 7 6 5 6 5 3 4 6 4 3 4 4 2 2 1 1 2 1 1 1 1 0 11 9 2 1 1 0 0 2 2 4 4 4 4 4 5 7 8 8 7
8 8 8 8 8 9 9 8 8 8 9 9 9 10 10 9 7 7 8 10 9 10 11 11 11 11 10 10 9 6 6 8 7 9 6 5 4 5 6 4 4 5 6 3 2 2 1 1 1 3 3 1 0 0 2 1 6 7 6 2 0 2 4 5 4 4 3 3 5 4 6 8 9 8
8 7 8 8 8 8 7 6 7 8 8 9 9 8 8 8 7 8 8 8 9 9 10 10 9 9 11 10 8 7 6 6 7 7 5 6 7 5 5 6 5 4 4 3 2 1 1 2 3 2 2 2 1 1 1 1 0 3 10 6 1 5 5 5 5 5 6 4 5 6 7 8 8 8
9 9 9 9 8 7 6 6 7 8 9 9 10 10 9 9 8 9 8 8 9 10 9 9 10 9 12 9 7 9 9 8 7 7 7 6 6 8 8 7 8 4 6 4 2 2 1 2 2 3 3 3 3 2 1 1 3 1 3 7 5 3 5 4 6 6 6 6 6 6 7 8 10 14
9 8 8 8 7 5 5 6 7 8 10 10 10 10 11 11 10 10 9 8 10 9 9 8 10 10 10 7 6 6 6 8 8 7 7 6 7 8 8 6 7 7 5 5 4 3 2 3 4 5 3 1 1 2 1 1 4 5 5 5 3 2 3 5 6 7 7 5 6 8 8 8 8 6
8 8 7 6 5 6 7 7 8 8 9 9 9 8 9 10 11 11 10 10 10 11 10 10 11 11 11 8 8 9 10 7 6 6 6 6 7 7 7 8 5 5 7 5 4 4 6 4 2 3 4 3 3 2 0 0 2 1 2 1 2 6 8 8 6 6 6 7 7 7 8 8 8 8
7 7 5 6 6 6 7 7 7 8 8 9 10 10 9 8 7 11 10 11 11 10 10 11 11 10 9 8 8 7 9 9 8 7 6 7 7 6 6 6 7 5 6 6 6 5 1 3 2 5 5 4 2 1 1 2 3 3 2 4 4 2 6 10 12 11 8 6 6 7 6 6 5 7
6 5 6 5 6 6 7 8 8 9 9 9 9 10 9 9 10 10 9 9 10 11 10 7 7 7 7 7 7 7 8 8 7 8 8 7 9 8 7 6 5 6 4 3 2 4 4 3 4 4 2 2 1 2 3 2 2 2 4 4 6 6 5 6 9 13 13 14 12 9 6 5 5 6
6 6 6 6 7 7 7 7 8 8 10 10 10 11 11 11 10 9 10 10 11 8 9 7 7 7 8 9 9 7 6 8 8 9 9 8 8 8 7 6 6 5 4 5 5 4 3 3 1 2 3 2 2 2 4 1 3 2 3 4 5 5 8 7 7 7 6 6 7 7 8 10 10 13
6 6 6 6 6 6 7 6 7 8 9 9 9 10 8 9 10 10 9 9 10 10 10 7 7 7 8 8 9 8 6 7 7 6 7 7 6 6 6 7 6 6 6 5 7 5 3 2 1 1 1 1 2 2 1 1 3 2 4 4 6 5 4 5 7 7 7 8 7 7 8 10 12 13
Wind_Direction
229 230 229 229 237 235 236 234 231 232 230 231 233 228 231 235 248 268 264 251 227 177 204 223 214 202 197 203 200 197 202 203 189 190 193 191 190 196 194 192 180 168 156 156 153 139 132 134 131 128 120 105 72 342 285 277 283 295 305 309 314 321 329 339 347 346 343 340 336 336 337 336 333 332
222 229 231 232 241 237 237 234 230 227 230 231 229 229 229 221 236 249 259 271 173 209 206 212 221 178 204 202 194 192 193 183 184 191 192 189 190 189 189 192 183 167 163 155 140 138 141 137 128 120 109 111 197 272 276 281 288 294 303 314 323 330 347 353 351 348 344 342 341 339 338 337 335 334
228 236 239 236 244 238 241 237 233 230 230 232 226 231 221 221 228 239 246 268 246 173 201 222 197 158 190 172 158 185 182 181 184 189 194 187 181 184 181 189 177 164 149 140 140 144 139 133 128 123 128 132 231 271 276 280 297 310 316 323 343 358 357 355 351 347 345 343 341 341 341 339 337 336
238 239 240 236 241 245 252 251 244 239 231 228 228 223 220 224 221 227 241 246 261 142 174 185 167 159 163 169 179 168 165 174 179 187 181 172 171 174 177 165 160 152 144 142 140 138 137 133 132 136 132 139 191 227 254 290 322 321 326 354 6 1 358 354 351 348 346 344 343 343 341 340 339 336
231 231 235 240 240 234 237 238 238 235 234 226 229 220 221 224 214 217 229 242 259 248 113 99 172 141 140 172 170 160 153 157 171 157 156 162 165 157 144 154 154 147 139 139 139 135 134 137 137 130 133 140 157 196 245 284 316 351 32 24 12 4 359 355 352 351 349 347 347 345 344 342 339 337
232 234 244 250 249 240 241 240 239 230 228 226 224 222 217 220 220 212 221 240 244 256 126 161 92 145 176 162 171 172 159 160 151 151 147 153 147 135 137 130 143 141 139 135 136 137 137 137 131 136 130 144 153 205 193 161 98 63 40 25 13 5 360 357 357 353 352 349 348 347 345 341 340 336
229 233 236 243 241 237 241 240 241 232 231 220 225 229 217 225 221 215 217 227 240 247 239 153 164 177 178 176 173 160 156 148 152 149 144 139 132 116 140 133 120 144 138 136 136 138 141 138 140 140 140 147 158 156 165 134 91 63 38 24 9 4 4 2 359 356 355 352 351 348 344 340 336 333
229 234 241 246 244 239 242 244 240 237 232 226 226 224 222 222 224 222 216 221 234 243 238 184 181 173 163 157 144 143 138 148 154 138 134 128 128 136 139 144 142 147 143 146 145 140 138 141 145 142 141 150 146 151 134 113 88 56 35 19 8 7 6 5 2 1 357 354 351 346 341 337 337 338
236 237 236 244 234 235 243 244 240 236 232 231 230 231 229 226 227 226 216 223 225 234 232 171 169 146 151 121 151 153 147 138 133 135 143 143 138 130 129 129 141 148 147 143 142 144 146 147 146 146 148 144 139 136 121 106 79 51 28 16 9 9 8 8 7 2 357 354 348 340 338 340 342 342
233 237 240 239 235 237 237 243 237 234 235 231 230 231 231 227 224 223 222 218 221 223 229 174 146 172 162 151 162 168 158 148 141 132 122 123 141 141 136 137 139 139 139 136 139 144 144 144 139 141 143 142 133 126 114 96 70 45 23 14 14 17 16 12 6 1 355 348 341 341 344 346 344 337
235 236 240 239 231 234 235 241 239 235 235 229 233 226 230 228 220 219 215 208 210 214 210 194 176 158 172 158 156 165 157 147 154 147 143 150 165 156 144 138 146 142 127 125 132 127 124 126 131 138 134 128 120 114 98 80 58 35 21 20 28 24 17 11 5 356 347 342 344 347 348 346 339 334
236 237 238 238 235 234 238 237 240 231 236 230 235 229 225 224 216 220 212 205 207 208 206 196 187 172 154 159 112 139 155 150 168 177 160 157 163 163 158 152 150 151 137 141 146 141 133 131 130 127 116 107 106 102 87 67 48 30 28 39 34 24 16 7 356 348 344 346 349 351 347 340 336 335
235 238 238 238 239 236 240 238 237 235 231 229 236 230 214 219 213 218 206 204 201 206 198 194 166 166 170 170 158 168 179 182 165 158 160 156 124 126 128 139 139 144 145 145 141 134 135 132 131 128 111 103 99 88 82 64 50 35 48 42 32 23 10 358 350 347 348 351 352 348 341 338 338 338
236 238 239 240 239 243 242 243 244 244 242 235 231 233 206 211 210 210 206 202 202 200 201 200 182 186 184 178 176 169 165 141 143 159 158 141 139 132 128 136 161 162 143 141 143 141 142 134 133 123 114 110 102 95 73 53 64 57 51 41 32 16 2 354 352 353 354 354 348 342 340 340 341 337
241 238 236 240 241 243 247 247 247 245 244 242 239 237 225 208 202 204 207 210 199 202 210 195 188 191 185 175 168 163 161 166 162 161 160 149 151 158 156 158 128 182 158 150 138 144 161 147 127 114 118 118 101 88 70 67 77 60 44 38 26 14 1 356 356 356 354 350 344 342 342 342 340 335
243 241 238 236 234 235 238 240 241 244 244 244 242 239 233 222 216 210 203 203 203 204 205 196 197 186 186 159 167 169 162 160 163 171 161 161 162 163 168 161 173 168 166 148 144 133 134 111 120 122 118 110 99 71 77 84 73 61 51 39 29 14 2 359 359 359 352 345 343 343 342 340 336 330
244 241 240 244 232 230 233 238 239 240 245 244 244 242 237 230 222 222 221 214 205 194 201 195 188 188 164 164 179 171 170 167 159 165 170 170 173 171 164 161 139 151 162 131 130 129 130 140 139 127 121 106 95 71 75 86 78 70 56 41 27 15 7 6 2 354 348 344 343 342 340 337 332 327
243 239 240 244 242 225 225 228 233 235 240 241 240 238 230 227 228 226 225 221 217 203 198 185 185 181 173 177 172 174 168 167 173 171 167 161 164 165 154 105 110 119 158 148 128 114 151 149 150 135 118 95 81 75 88 101 89 72 56 42 29 19 14 7 358 349 346 346 343 340 337 334 329 324
245 242 241 241 247 240 225 223 221 230 229 229 229 227 225 222 220 218 220 215 202 194 194 188 184 178 174 174 171 171 172 169 161 166 162 155 136 112 99 84 95 96 44 145 135 142 162 171 152 124 111 88 87 89 105 113 90 75 59 43 30 22 16 5 353 347 347 346 342 338 336 333 327 326
243 245 242 244 245 240 237 227 226 229 223 219 223 221 220 218 215 219 214 202 188 180 177 181 175 168 173 169 160 158 156 145 128 106 100 102 120 128 124 122 135 99 38 14 126 120 157 137 149 116 90 93 99 124 119 107 84 76 59 42 31 22 11 1 349 349 348 345 340 337 334 331 328 329
247 243 238 238 245 241 238 231 234 231 216 215 216 216 212 209 206 201 193 182 180 179 178 176 167 157 155 152 156 157 151 146 138 129 128 145 147 139 128 124 133 140 112 353 134 124 127 120 114 115 93 67 108 150 152 102 70 65 56 44 30 16 6 355 350 350 348 342 338 336 334 332 333 334
255 243 237 235 240 242 240 235 231 225 212 210 211 207 198 192 188 180 168 162 168 168 162 155 159 153 154 157 158 157 153 147 145 148 158 158 146 133 138 141 140 129 155 205 188 105 117 108 95 111 110 103 104 150 159 154 81 58 45 47 30 10 359 355 353 349 344 340 337 335 334 336 340 335
247 249 237 234 236 239 241 242 232 222 212 208 208 202 196 193 188 180 166 158 148 147 141 143 140 146 152 152 149 151 149 150 153 138 136 145 149 140 138 132 122 121 210 204 205 116 146 133 85 111 115 100 99 131 130 164 113 60 54 50 36 4 355 354 352 345 338 335 333 333 336 341 345 335
250 240 241 241 234 240 245 241 231 224 217 207 206 196 200 195 196 178 170 163 152 148 142 136 134 126 121 121 123 123 119 107 77 108 126 145 145 144 148 156 164 162 143 167 169 115 90 113 119 53 93 145 168 141 204 235 241 285 39 34 23 357 355 354 348 333 326 327 330 334 338 343 347 337
261 256 243 228 235 237 240 236 230 226 224 214 201 204 204 207 186 163 160 158 142 128 120 115 115 112 107 103 107 111 104 97 76 62 63 55 69 112 148 149 130 96 103 155 149 100 136 147 126 116 89 79 89 138 147 191 286 268 57 23 349 343 352 345 333 314 308 311 319 331 336 342 343 339
255 251 248 245 225 231 234 235 232 228 227 219 202 209 212 192 157 164 143 134 124 120 127 124 117 116 115 114 114 109 104 98 92 70 59 60 55 37 23 133 138 130 152 171 144 111 124 125 150 129 118 134 151 129 198 216 199 212 119 319 340 331 312 309 301 298 303 301 306 324 333 337 338 336
257 255 246 236 225 219 228 227 227 229 225 221 204 201 199 168 157 142 134 133 136 131 131 131 136 135 134 129 119 111 98 89 90 80 69 71 75 71 63 49 49 93 113 96 103 106 98 111 145 150 146 156 137 120 180 219 131 139 237 253 305 319 259 278 277 293 301 301 301 317 327 325 326 327
258 254 245 230 216 224 227 225 228 230 226 217 204 196 191 164 150 138 141 147 139 134 129 141 138 133 133 119 110 103 93 94 88 77 72 69 71 86 74 64 71 77 68 72 67 79 94 111 137 110 132 147 148 175 188 146 155 194 233 298 302 254 241 264 268 290 302 309 312 325 328 327 324 323
251 251 250 241 235 236 228 226 229 229 228 219 201 198 181 161 146 148 152 146 141 146 156 154 142 132 127 114 113 109 110 107 94 88 76 75 76 79 76 68 59 45 46 45 55 59 93 121 133 125 104 135 147 149 152 202 134 218 162 332 318 186 260 257 274 308 318 318 323 321 318 317 314 316
246 248 245 237 232 228 228 226 221 222 226 218 197 189 172 163 158 159 160 157 158 159 156 150 141 125 109 111 120 120 111 98 103 117 121 114 94 91 95 84 60 45 34 37 55 63 73 95 118 122 109 112 150 163 195 187 258 219 173 216 277 298 197 213 297 312 317 321 317 309 304 304 300 305
244 236 230 222 220 220 221 220 218 220 221 213 192 188 170 168 163 165 164 166 162 150 141 131 113 104 110 115 124 122 110 106 116 121 124 111 115 103 92 98 101 84 47 35 42 45 71 91 106 118 119 122 104 203 195 195 232 250 256 210 221 252 295 310 297 302 315 312 302 296 300 304 301 295
224 213 208 213 210 211 222 221 223 215 201 193 184 176 168 167 161 157 153 147 146 140 131 117 112 112 128 136 136 125 106 118 118 127 118 125 122 123 124 95 109 116 103 77 61 40 51 57 96 124 141 156 167 168 149 198 220 243 262 218 232 273 263 279 300 308 317 305 296 296 299 304 303 304
209 200 197 193 201 205 210 214 218 212 193 189 175 163 165 160 159 156 157 153 145 138 128 127 134 138 135 131 135 126 114 123 126 132 113 116 122 136 77 115 142 149 143 143 124 95 58 63 19 179 196 200 197 160 166 211 227 192 217 218 223 254 257 291 307 316 321 304 292 294 298 299 298 304
214 206 206 206 200 201 202 208 211 206 191 170 159 164 158 158 157 156 155 148 146 141 133 132 136 140 139 140 148 135 126 117 119 133 131 133 139 126 130 125 133 127 121 136 136 122 49 10 93 112 80 237 239 208 197 209 237 162 208 207 220 256 293 326 314 318 316 312 315 311 305 303 302 306
215 213 215 213 207 205 200 203 203 194 184 173 166 162 158 159 159 154 137 140 138 133 132 138 139 141 147 149 154 144 138 131 121 84 81 119 132 131 138 125 131 144 143 134 136 121 98 66 100 107 111 354 74 163 212 194 103 193 146 219 192 264 300 323 315 308 310 307 309 304 302 297 304 320
219 216 220 216 214 207 208 205 191 182 171 169 160 154 152 155 150 147 147 147 147 139 137 143 149 152 152 151 153 143 130 126 125 133 137 129 119 116 113 121 132 132 128 130 121 122 111 111 128 129 107 23 71 342 75 200 194 158 202 266 292 310 290 288 296 291 291 297 299 307 309 311 312 320
222 215 218 221 217 213 215 203 183 174 167 164 163 159 156 149 150 142 143 147 146 141 144 145 154 154 149 148 144 138 136 136 132 144 130 131 127 131 119 104 107 123 113 105 108 127 135 117 163 124 121 102 80 223 250 79 265 221 182 221 335 298 307 306 306 297 283 283 293 296 299 303 305 307
218 216 215 216 216 216 214 189 171 165 160 156 154 153 146 134 123 125 133 144 139 133 141 147 146 146 152 151 140 135 131 125 119 134 143 146 142 147 138 132 135 135 121 130 136 138 158 139 143 140 140 149 140 213 271 216 147 124 135 123 349 309 303 300 304 310 311 308 295 303 306 297 298 305
222 218 217 216 214 208 197 178 168 161 155 155 156 153 137 129 130 137 147 150 130 135 139 145 155 157 156 153 146 147 145 142 141 144 148 162 152 136 131 127 117 120 128 139 150 153 155 160 161 164 157 160 187 204 171 205 260 232 250 299 303 274 289 293 299 307 305 310 311 304 290 287 288 291
225 219 218 216 211 193 174 163 162 160 160 162 156 153 148 145 149 147 151 145 137 140 145 147 147 149 154 148 138 121 116 128 136 148 153 148 144 130 127 133 137 146 143 149 157 181 181 197 180 179 179 149 85 105 130 269 281 289 282 303 264 224 288 303 301 308 307 305 311 312 308 315 312 320
218 218 212 198 184 170 168 167 163 160 162 157 150 146 150 148 148 153 161 146 141 145 149 153 158 159 158 152 158 147 138 137 140 145 139 133 129 128 133 130 122 160 151 170 168 172 203 199 201 150 119 100 120 148 111 327 279 284 310 278 116 331 309 310 302 295 289 298 302 301 302 309 313 318
212 209 189 172 171 169 164 162 155 153 151 151 148 146 142 139 135 139 135 132 137 140 148 155 160 155 151 156 151 142 135 146 147 149 150 141 132 126 142 146 146 166 161 169 179 185 98 90 112 122 112 130 129 123 231 214 260 288 289 306 301 283 305 303 304 301 291 279 282 287 296 303 313 309
191 176 173 164 156 159 161 159 158 153 151 148 146 143 134 138 138 139 142 140 147 153 155 139 142 142 150 148 140 135 131 140 147 145 144 143 141 143 156 171 162 162 153 125 105 112 125 121 130 130 130 125 180 145 232 244 243 280 292 296 303 320 310 309 310 305 302 295 286 270 255 263 298 301
171 167 164 160 156 158 158 160 157 157 153 157 154 153 152 146 147 153 148 145 154 148 146 138 146 147 151 147 134 131 142 143 144 147 148 150 151 150 149 145 141 141 136 127 121 135 136 139 147 139 150 177 156 169 226 247 265 251 275 291 297 316 314 323 320 315 307 292 300 296 276 275 281 287
160 162 158 158 156 150 152 154 152 153 152 148 151 153 146 139 139 141 142 142 145 146 154 147 150 155 151 148 147 142 139 138 139 133 131 135 140 141 139 144 142 142 147 146 139 147 143 127 129 130 118 119 140 200 228 202 267 287 286 292 297 308 309 330 333 335 335 322 323 332 317 310 305 302